GPS BIIF-1 (PRN 25) (36585 NORAD) Tracking and Keplerian Element Data

This shows tracking and keplerian element data for the satellite.

Feedback or suggestion? Click here.




ElementValue
Catalog36585
NameGPS BIIF-1 (PRN 25)
Epoch Orbit6265
Epoch Day351.48723363
Epoch Year2018
RAAN318.8318
Inclination55.7022
Eccentricity0.0076826
Argument of Perigee47.1747
Mean Anonmoly119.5465
Mean Motion2.00551067
Decay Rate-4.5E-07
L11 36585U 10022A 18351.48723363 -.00000045 00000-0 00000+0 0 9995
L22 36585 55.7022 318.8318 0076826 47.1747 119.5465 2.00551067 62657

Live tracking and technical data element details for GPS BIIF-1 (PRN 25) (NORAD 36585). GPS BIIF-1 (PRN 25) can be tracked NOW for your location showing map with azimuth and elevation plus other details from your city location.

Track the satellite on the map from your city or location and see movement details for azimuth, elevation, latitude, longitude, range, height, and movement on the map or in text.







IsCatalogInMostPopularTable: catalog: 36585, numindb: 72
Update: records affected: 1



GetName: 36585 GPS BIIF-1 (PRN 25)

Hit Count: updated at: Tue, 18 Dec 2018 21:33:39 GMT